Terminal Aerodrome Forecast
Issued by NWS

Home | Current Version | Previous Version | Text Only | Print | Product List | Glossary On
Versions: 1 2 3 4 5 6 7 8 9 10 11 12 13 14 15 16 17 18 19 20 21 22 23 24 25 26
000
FTUS41 KBUF 301100
TAFIAG
TAF
KIAG 301138Z 3012/0112 00000KT P6SM SCT250
     FM301800 VRB03KT P6SM VCSH SCT035 BKN120
     FM302200 04005KT P6SM SCT035 BKN110
     FM010400 07004KT 3SM BR BKN012 BKN060
     FM011000 06004KT 3SM BR BKN007 BKN100=

USA.gov is the U.S. government's official web portal to all federal, state and local government web resources and services.